sat.trackr.live / text

‹ back to catalog

STARLINK-31099

NORAD 58781 · 2024-011S

PAYLOAD ACTIVE UNKNOWN

§ Identity

Operator
Country
US
Launch date
2024-01-14
Launch site
AFWTR
Launch vehicle
Mass (kg)
RCS (m²)

Purposes: comms

External: N2YO · Heavens-Above · Gunter

§ Orbital elements

Epoch: 2026-05-24T22:46:11.540352Z

Period
94.11 min
Inclination
53.1610°
Eccentricity
0.0001102
Mean motion
15.30194273 rev/d
Perigee alt
474.5 km
Apogee alt
476.0 km
Semi-major
6,853.4 km
B*
2.2870e-5
RAAN
19.6107°
Arg perigee
92.1665°
Mean anomaly
267.9462°
Rev number
13,194

§ Raw data

STARLINK-310991 58781U 24011S   26144.94874468  .00000318  00000+0  22870-4 0  99982 58781  53.1610  19.6107 0001102  92.1665 267.9462 15.30194273131943

JSON: /api/v1/satellites/58781 · /tle

For live sub-satellite position, see the globe view (requires WebGL).

§ Visibility from observer

Set your observer location to see the next 7 days of passes ≥ 10°. The values pass through the URL so the page stays shareable.

No JS? Fill the form by hand. The geolocation button needs JavaScript.